TimeMDT,TemperatureF,Dew PointF,Humidity,Sea Level PressureIn,VisibilityMPH,Wind Direction,Wind SpeedMPH,Gust SpeedMPH,PrecipitationIn,Events,Conditions,WindDirDegrees,DateUTC
12:52 AM,55.9,51.1,84,29.82,10.0,North,12.7,-,N/A,,Clear,350,2013-06-23 06:52:00
1:52 AM,54.0,50.0,86,29.84,10.0,WNW,8.1,-,N/A,,Clear,300,2013-06-23 07:52:00
2:52 AM,53.1,48.9,86,29.86,10.0,NW,10.4,-,N/A,,Clear,320,2013-06-23 08:52:00
3:52 AM,51.1,48.0,89,29.88,10.0,SSW,6.9,-,N/A,,Clear,210,2013-06-23 09:52:00
4:52 AM,52.0,50.0,93,29.89,10.0,SSW,9.2,-,N/A,,Clear,210,2013-06-23 10:52:00
5:52 AM,52.0,50.0,93,29.92,10.0,Calm,Calm,-,N/A,,Clear,0,2013-06-23 11:52:00
6:52 AM,55.9,52.0,87,29.92,10.0,SW,3.5,-,N/A,,Clear,220,2013-06-23 12:52:00
7:52 AM,61.0,51.1,70,29.91,10.0,Calm,Calm,-,N/A,,Clear,0,2013-06-23 13:52:00
8:52 AM,64.9,46.9,52,29.90,10.0,North,5.8,-,N/A,,Clear,350,2013-06-23 14:52:00
9:52 AM,66.9,46.0,47,29.90,10.0,East,4.6,-,N/A,,Clear,80,2013-06-23 15:52:00
10:52 AM,69.1,46.9,45,29.89,10.0,NNE,4.6,-,N/A,,Clear,30,2013-06-23 16:52:00
11:52 AM,71.1,48.0,44,29.88,10.0,Variable,3.5,-,N/A,,Clear,0,2013-06-23 17:52:00
12:52 PM,71.1,48.0,44,29.87,10.0,Calm,Calm,-,N/A,,Clear,0,2013-06-23 18:52:00
1:52 PM,73.0,51.1,46,29.86,10.0,ESE,12.7,-,N/A,,Clear,110,2013-06-23 19:52:00
2:52 PM,73.9,51.1,45,29.85,10.0,ESE,5.8,-,N/A,,Clear,120,2013-06-23 20:52:00
3:52 PM,75.0,53.1,46,29.83,10.0,ESE,11.5,-,N/A,,Clear,110,2013-06-23 21:52:00
4:52 PM,75.9,51.1,42,29.81,10.0,ESE,11.5,-,N/A,,Clear,110,2013-06-23 22:52:00
5:52 PM,75.9,51.1,42,29.79,10.0,ESE,9.2,-,N/A,,Clear,120,2013-06-23 23:52:00
6:52 PM,75.0,51.1,43,29.78,10.0,SSE,9.2,-,N/A,,Clear,150,2013-06-24 00:52:00
7:52 PM,70.0,52.0,53,29.78,10.0,SSE,6.9,-,N/A,,Clear,150,2013-06-24 01:52:00
8:52 PM,63.0,54.0,72,29.79,10.0,ESE,4.6,-,N/A,,Clear,120,2013-06-24 02:52:00
9:52 PM,62.1,54.0,75,29.82,10.0,East,9.2,-,N/A,,Clear,100,2013-06-24 03:52:00
10:52 PM,61.0,55.9,83,29.81,10.0,East,6.9,-,N/A,,Clear,100,2013-06-24 04:52:00
11:52 PM,60.1,55.9,86,29.79,10.0,SSE,5.8,-,N/A,,Clear,160,2013-06-24 05:52:00